Погода в Сен-Реми-де-Провансе

Франция     43°47′20″N   4°50′00″E
темп.,
°C
ветер,
м/с
пор.,
м/с
влажн.,
%
обл.,
%
осадки,
мм/ч
давл.,
гПа
погр.,
м
21 января, пт
пт2101:00+4с1622655 0.0 1021904
04:00+3с1621685 0.0 1021780
07:00+2с1419695 0.0 1021712
10:00+3с1417645 0.0 1023688
13:00+6с1113520 0.0 1024706
16:00+6с1215523 0.0 1024620
19:00+4с1318632 0.0 1025565
22:00+2с1217661 0.0 1027526
22 января, сб
сб2201:00+2с1116675 0.0 1028434
04:00+1с1015675 0.0 1028395
07:00+1с814665 0.0 1029393
10:00+3с912595 0.0 1030490
13:00+7с78472 0.0 1029618
16:00+8с78490 0.0 1027591
19:00+5с813660 0.0 1028379
22:00+3ссв58780 0.0 1029205
23 января, вс
вс2301:00+2ссв36850 0.0 1029120
04:00+1ссв34860 0.0 102972
07:000ссв23870 0.0 102933
10:00+3ссв34700 0.0 1030178
13:00+8ссв22505 0.0 1029431
16:00+10ссв21522 0.0 1028635
19:00+5ссв22667 0.0 102818
22:00+3ссв22791 0.0 102924
24 января, пн
пн2401:00+2ссв22850 0.0 102926
04:00+1ссв32860 0.0 103032
07:00+1ссв22860 0.0 103025
10:00+4ссв23700 0.0 1031138
13:00+9ссв22550 0.0 1031396
16:00+10с22530 0.0 1030543
19:00+5с11680 0.0 103110
22:00+4с21720 0.0 103310
25 января, вт
вт2501:00+2ссв22790 0.0 103312
04:00+1ссв22860 0.0 103415
07:00+1ссв22870 0.0 103424
10:00+4с36720 0.0 1034236
13:00+9с610510 0.0 1033642
16:00+10ссз610525 0.0 1032653
19:00+7с715590 0.0 1032419
22:00+6с815670 0.0 1033419